User: anonymous
Location: Hancock Field Station
(44.9202°N, 120.4259°W)
Time: 04:58:38
(UTC-07:00)
Language:

Cosmos 1707 - Orbit

View from above orbital plane
View from above orbital plane
View from above satellite
View from above satellite

Ground track
Ground track

The orbit data is extracted from the following two-line orbital elements,

1 16326U 85113A   14261.11894225  .00003403  00000-0  21486-3 0    32
2 16326 082.5078 111.3709 0013384 161.7910 198.3800 15.08707565565791
Epoch (UTC): 18 September 2014 02:51:16
Eccentricity: 0.0013384
inclination: 82.5078°
perigee height: 531 km
apogee height: 549 km
right ascension of ascending node: 111.3709°
argument of perigee: 161.7910°
revolutions per day: 15.08707565
mean anomaly at epoch: 198.3800°
orbit number at epoch: 56579

The dashed part of the orbit path shows where the satellite is in the earth's shadow,  

DLR